Time,TemperatureF,DewpointF,PressureIn,WindDirection,WindDirectionDegrees,WindSpeedMPH,WindSpeedGustMPH,Humidity,HourlyPrecipIn,Conditions,Clouds,dailyrainin,SoftwareType,DateUTC
2013-08-17 00:00:00,84.5,79.1,29.90,ESE,121,17.0,25.0,84,0.00,RA,,0.00,WeatherDisplay:10.37,2013-08-17 06:00:00,
2013-08-17 00:15:00,84.4,79.0,29.89,ESE,123,20.0,24.0,84,0.00,CLR,,0.00,WeatherDisplay:10.37,2013-08-17 06:15:00,
2013-08-17 00:30:00,84.4,78.7,29.89,ESE,119,20.0,23.0,83,0.00,CLR,,0.00,WeatherDisplay:10.37,2013-08-17 06:30:00,
2013-08-17 00:45:00,84.5,79.1,29.88,ESE,118,21.0,26.0,84,0.00,CLR,,0.00,WeatherDisplay:10.37,2013-08-17 06:45:00,
2013-08-17 01:00:00,84.4,78.7,29.88,ESE,114,20.0,24.0,83,0.00,CLR,,0.00,WeatherDisplay:10.37,2013-08-17 07:00:00,
2013-08-17 01:15:00,84.4,79.0,29.88,ESE,119,16.0,21.0,84,0.00,CLR,,0.00,WeatherDisplay:10.37,2013-08-17 07:15:00,
2013-08-17 01:30:00,84.3,79.3,29.88,ESE,122,17.0,22.0,85,0.00,CLR,,0.00,WeatherDisplay:10.37,2013-08-17 07:30:00,
2013-08-17 01:45:00,84.4,79.3,29.88,SE,125,17.0,23.0,85,0.00,CLR,,0.00,WeatherDisplay:10.37,2013-08-17 07:45:00,
2013-08-17 02:00:00,84.3,78.9,29.87,ESE,117,17.0,24.0,84,0.00,CLR,,0.00,WeatherDisplay:10.37,2013-08-17 08:00:00,
2013-08-17 02:15:00,84.3,78.9,29.88,ESE,120,15.0,21.0,84,0.00,CLR,,0.00,WeatherDisplay:10.37,2013-08-17 08:15:00,
2013-08-17 02:30:00,84.4,79.4,29.87,ESE,118,16.0,21.0,85,0.00,CLR,,0.00,WeatherDisplay:10.37,2013-08-17 08:30:00,
2013-08-17 02:45:00,84.3,78.9,29.87,SE,125,21.0,25.0,84,0.00,CLR,,0.00,WeatherDisplay:10.37,2013-08-17 08:45:00,
2013-08-17 03:00:00,84.4,79.0,29.87,ESE,115,16.0,24.0,84,0.00,CLR,,0.00,WeatherDisplay:10.37,2013-08-17 09:00:00,
2013-08-17 03:15:00,84.3,79.3,29.87,ESE,121,16.0,23.0,85,0.00,CLR,,0.00,WeatherDisplay:10.37,2013-08-17 09:15:00,
2013-08-17 03:30:00,84.2,78.8,29.87,ESE,119,20.0,25.0,84,0.00,CLR,,0.00,WeatherDisplay:10.37,2013-08-17 09:30:00,
2013-08-17 03:45:00,84.3,78.5,29.88,ESE,115,18.0,24.0,83,0.00,CLR,,0.00,WeatherDisplay:10.37,2013-08-17 09:45:00,
2013-08-17 04:00:00,84.2,78.8,29.88,ESE,109,18.0,23.0,84,0.00,CLR,,0.00,WeatherDisplay:10.37,2013-08-17 10:00:00,
2013-08-17 04:15:00,84.3,78.9,29.88,ESE,120,17.0,26.0,84,0.00,CLR,,0.00,WeatherDisplay:10.37,2013-08-17 10:15:00,
2013-08-17 04:30:00,84.2,78.8,29.88,ESE,116,16.0,23.0,84,0.00,CLR,,0.00,WeatherDisplay:10.37,2013-08-17 10:30:00,
2013-08-17 04:45:00,84.1,78.4,29.88,ESE,110,21.0,25.0,83,0.00,CLR,,0.00,WeatherDisplay:10.37,2013-08-17 10:45:00,
2013-08-17 05:00:00,84.3,78.6,29.89,ESE,119,18.0,25.0,83,0.00,CLR,,0.00,WeatherDisplay:10.37,2013-08-17 11:00:00,
2013-08-17 05:15:00,84.2,78.5,29.89,ESE,118,18.0,24.0,83,0.00,CLR,,0.00,WeatherDisplay:10.37,2013-08-17 11:15:00,
2013-08-17 05:30:00,84.1,78.4,29.89,ESE,114,16.0,21.0,83,0.00,CLR,,0.00,WeatherDisplay:10.37,2013-08-17 11:30:00,
2013-08-17 05:45:00,84.0,77.5,29.89,ESE,114,20.0,23.0,81,0.00,CLR,,0.00,WeatherDisplay:10.37,2013-08-17 11:45:00,
2013-08-17 06:00:00,84.1,77.7,29.90,SE,125,20.0,23.0,81,0.00,CLR,,0.00,WeatherDisplay:10.37,2013-08-17 12:00:00,
2013-08-17 06:15:00,84.3,78.6,29.90,ESE,121,15.0,23.0,83,0.00,CLR,,0.00,WeatherDisplay:10.37,2013-08-17 12:15:00,
2013-08-17 06:30:00,84.6,78.1,29.90,ESE,117,17.0,20.0,81,0.00,CLR,,0.00,WeatherDisplay:10.37,2013-08-17 12:30:00,
2013-08-17 06:45:00,84.8,78.3,29.90,ESE,119,16.0,24.0,81,0.00,CLR,,0.00,WeatherDisplay:10.37,2013-08-17 12:45:00,
2013-08-17 07:00:00,85.1,77.8,29.91,ESE,120,17.0,20.0,79,0.00,CLR,,0.00,WeatherDisplay:10.37,2013-08-17 13:00:00,
2013-08-17 07:15:00,85.4,77.8,29.92,SE,125,17.0,21.0,78,0.00,CLR,,0.00,WeatherDisplay:10.37,2013-08-17 13:15:00,
2013-08-17 07:30:00,85.7,77.3,29.92,SE,126,17.0,21.0,76,0.00,CLR,,0.00,WeatherDisplay:10.37,2013-08-17 13:30:00,
2013-08-17 07:45:00,85.8,77.4,29.92,ESE,121,17.0,21.0,76,0.00,CLR,,0.00,WeatherDisplay:10.37,2013-08-17 13:45:00,
2013-08-17 08:00:00,86.1,77.2,29.92,ESE,121,15.0,20.0,75,0.00,CLR,,0.00,WeatherDisplay:10.37,2013-08-17 14:00:00,
2013-08-17 08:15:00,86.3,77.0,29.92,ESE,122,17.0,20.0,74,0.00,CLR,,0.00,WeatherDisplay:10.37,2013-08-17 14:15:00,
2013-08-17 08:30:00,86.5,78.0,29.93,ESE,121,15.0,21.0,76,0.00,CLR,,0.00,WeatherDisplay:10.37,2013-08-17 14:30:00,
2013-08-17 08:45:00,86.5,77.2,29.93,SE,126,17.0,20.0,74,0.00,CLR,,0.00,WeatherDisplay:10.37,2013-08-17 14:45:00,
2013-08-17 09:00:00,86.6,77.7,29.93,SE,124,15.0,21.0,75,0.00,CLR,,0.00,WeatherDisplay:10.37,2013-08-17 15:00:00,
2013-08-17 09:15:00,86.8,77.9,29.93,ESE,119,15.0,19.0,75,0.00,CLR,,0.00,WeatherDisplay:10.37,2013-08-17 15:15:00,
2013-08-17 09:30:00,86.8,77.5,29.93,ESE,117,16.0,21.0,74,0.00,CLR,,0.00,WeatherDisplay:10.37,2013-08-17 15:30:00,
2013-08-17 09:45:00,87.0,78.1,29.93,ESE,116,13.0,19.0,75,0.00,CLR,,0.00,WeatherDisplay:10.37,2013-08-17 15:45:00,
2013-08-17 10:00:00,87.0,77.7,29.93,ESE,116,16.0,20.0,74,0.00,CLR,,0.00,WeatherDisplay:10.37,2013-08-17 16:00:00,
2013-08-17 10:15:00,87.0,77.7,29.93,SE,124,15.0,20.0,74,0.00,CLR,,0.00,WeatherDisplay:10.37,2013-08-17 16:15:00,
2013-08-17 10:30:00,87.2,77.4,29.94,ESE,120,15.0,19.0,73,0.00,CLR,,0.00,WeatherDisplay:10.37,2013-08-17 16:30:00,
2013-08-17 10:45:00,87.0,77.3,29.94,SE,124,15.0,20.0,73,0.00,CLR,,0.00,WeatherDisplay:10.37,2013-08-17 16:45:00,
2013-08-17 11:00:00,87.2,77.5,29.93,ESE,119,15.0,16.0,73,0.00,CLR,,0.00,WeatherDisplay:10.37,2013-08-17 17:00:00,
2013-08-17 11:15:00,87.2,77.5,29.93,ESE,120,14.0,19.0,73,0.00,CLR,,0.00,WeatherDisplay:10.37,2013-08-17 17:15:00,
2013-08-17 11:30:00,87.1,77.4,29.93,ESE,119,16.0,18.0,73,0.00,CLR,,0.00,WeatherDisplay:10.37,2013-08-17 17:30:00,
2013-08-17 11:45:00,87.2,77.9,29.93,ESE,118,14.0,18.0,74,0.00,CLR,,0.00,WeatherDisplay:10.37,2013-08-17 17:45:00,
2013-08-17 12:00:00,87.2,77.9,29.92,ESE,119,14.0,18.0,74,0.00,CLR,,0.00,WeatherDisplay:10.37,2013-08-17 18:00:00,
2013-08-17 12:15:00,87.0,77.7,29.92,ESE,112,16.0,19.0,74,0.00,CLR,,0.00,WeatherDisplay:10.37,2013-08-17 18:15:00,
2013-08-17 12:30:00,86.9,77.2,29.92,ESE,120,15.0,18.0,73,0.00,CLR,,0.00,WeatherDisplay:10.37,2013-08-17 18:30:00,
2013-08-17 12:45:00,86.9,77.2,29.92,ESE,120,17.0,19.0,73,0.00,CLR,,0.00,WeatherDisplay:10.37,2013-08-17 18:45:00,
2013-08-17 13:15:00,87.0,77.7,29.91,ESE,113,15.0,19.0,74,0.00,CLR,,0.00,WeatherDisplay:10.37,2013-08-17 19:15:00,
2013-08-17 13:30:00,87.0,78.1,29.91,ESE,118,15.0,19.0,75,0.00,CLR,,0.00,WeatherDisplay:10.37,2013-08-17 19:30:00,
2013-08-17 13:45:00,86.8,77.9,29.91,ESE,113,15.0,19.0,75,0.00,CLR,,0.00,WeatherDisplay:10.37,2013-08-17 19:45:00,
2013-08-17 14:00:00,86.8,77.9,29.91,ESE,115,14.0,18.0,75,0.00,CLR,,0.00,WeatherDisplay:10.37,2013-08-17 20:00:00,
2013-08-17 14:15:00,87.0,78.9,29.91,ESE,114,12.0,18.0,77,0.00,CLR,,0.00,WeatherDisplay:10.37,2013-08-17 20:15:00,
2013-08-17 14:30:00,86.6,77.7,29.90,ESE,121,14.0,16.0,75,0.00,CLR,,0.00,WeatherDisplay:10.37,2013-08-17 20:30:00,
2013-08-17 14:45:00,86.8,78.3,29.89,ESE,106,10.0,16.0,76,0.00,CLR,,0.00,WeatherDisplay:10.37,2013-08-17 20:45:00,
2013-08-17 15:00:00,86.8,78.3,29.89,ESE,111,9.0,14.0,76,0.00,CLR,,0.00,WeatherDisplay:10.37,2013-08-17 21:00:00,
2013-08-17 15:15:00,86.5,78.0,29.88,ESE,112,8.0,15.0,76,0.00,CLR,,0.00,WeatherDisplay:10.37,2013-08-17 21:15:00,
2013-08-17 15:30:00,86.6,77.7,29.88,ESE,105,10.0,14.0,75,0.00,CLR,,0.00,WeatherDisplay:10.37,2013-08-17 21:30:00,
2013-08-17 15:45:00,86.5,78.0,29.87,ESE,102,8.0,13.0,76,0.00,CLR,,0.00,WeatherDisplay:10.37,2013-08-17 21:45:00,
2013-08-17 16:00:00,86.3,77.9,29.87,East,100,8.0,13.0,76,0.00,CLR,,0.00,WeatherDisplay:10.37,2013-08-17 22:00:00,
2013-08-17 16:15:00,86.4,78.3,29.87,East,101,8.0,12.0,77,0.00,CLR,,0.00,WeatherDisplay:10.37,2013-08-17 22:15:00,
2013-08-17 16:26:00,86.2,78.5,29.87,East,93,6.0,12.0,78,0.00,CLR,,0.00,WeatherDisplay:10.37,2013-08-17 22:26:00,
2013-08-17 16:45:00,85.9,78.3,29.88,East,101,5.0,13.0,78,0.00,CLR,,0.00,WeatherDisplay:10.37,2013-08-17 22:45:00,
2013-08-17 17:00:00,85.5,78.2,29.88,East,95,10.0,15.0,79,0.00,CLR,,0.00,WeatherDisplay:10.37,2013-08-17 23:00:00,
2013-08-17 17:15:00,85.0,78.1,29.89,East,91,12.0,14.0,80,0.00,CLR,,0.00,WeatherDisplay:10.37,2013-08-17 23:15:00,
2013-08-17 17:30:00,84.8,78.3,29.89,East,88,13.0,15.0,81,0.00,CLR,,0.00,WeatherDisplay:10.37,2013-08-17 23:30:00,
2013-08-17 17:45:00,84.6,78.9,29.89,East,89,10.0,15.0,83,0.00,CLR,,0.00,WeatherDisplay:10.37,2013-08-17 23:45:00,
2013-08-17 18:00:00,84.5,78.4,29.89,East,81,10.0,15.0,82,0.00,CLR,,0.00,WeatherDisplay:10.37,2013-08-18 00:00:00,
2013-08-17 18:15:00,84.7,79.0,29.90,ENE,70,12.0,16.0,83,0.00,CLR,,0.00,WeatherDisplay:10.37,2013-08-18 00:15:00,
2013-08-17 18:30:00,84.5,78.8,29.90,East,79,10.0,16.0,83,0.00,CLR,,0.00,WeatherDisplay:10.37,2013-08-18 00:30:00,
2013-08-17 18:45:00,84.4,79.0,29.90,East,87,14.0,18.0,84,0.00,CLR,,0.00,WeatherDisplay:10.37,2013-08-18 00:45:00,
2013-08-17 19:00:00,84.3,78.6,29.91,East,82,12.0,18.0,83,0.00,CLR,,0.00,WeatherDisplay:10.37,2013-08-18 01:00:00,
2013-08-17 19:15:00,84.4,78.7,29.91,East,84,10.0,16.0,83,0.00,CLR,,0.00,WeatherDisplay:10.37,2013-08-18 01:15:00,
2013-08-17 19:30:00,84.3,77.8,29.92,East,84,10.0,16.0,81,0.00,CLR,,0.00,WeatherDisplay:10.37,2013-08-18 01:30:00,
2013-08-17 19:45:00,84.4,78.7,29.92,East,88,10.0,18.0,83,0.00,CLR,,0.00,WeatherDisplay:10.37,2013-08-18 01:45:00,
2013-08-17 20:00:00,84.3,78.5,29.93,ENE,75,12.0,19.0,83,0.00,CLR,,0.00,WeatherDisplay:10.37,2013-08-18 02:00:00,
2013-08-17 20:15:00,84.2,78.5,29.93,East,82,14.0,19.0,83,0.00,CLR,,0.00,WeatherDisplay:10.37,2013-08-18 02:15:00,
2013-08-17 20:30:00,84.3,78.2,29.93,East,84,14.0,19.0,82,0.00,CLR,,0.00,WeatherDisplay:10.37,2013-08-18 02:30:00,
2013-08-17 20:45:00,84.2,78.5,29.93,ENE,66,13.0,21.0,83,0.00,CLR,,0.00,WeatherDisplay:10.37,2013-08-18 02:45:00,
2013-08-17 21:00:00,84.1,78.0,29.93,ENE,78,10.0,21.0,82,0.00,CLR,,0.00,WeatherDisplay:10.37,2013-08-18 03:00:00,
2013-08-17 21:15:00,84.2,78.1,29.93,East,87,14.0,21.0,82,0.00,CLR,,0.00,WeatherDisplay:10.37,2013-08-18 03:15:00,
2013-08-17 21:30:00,84.2,77.7,29.94,East,94,17.0,20.0,81,0.00,CLR,,0.00,WeatherDisplay:10.37,2013-08-18 03:30:00,
2013-08-17 21:45:00,84.2,78.1,29.94,East,81,16.0,20.0,82,0.00,CLR,,0.00,WeatherDisplay:10.37,2013-08-18 03:45:00,
2013-08-17 22:00:00,84.2,77.7,29.94,ENE,78,17.0,22.0,81,0.00,CLR,,0.00,WeatherDisplay:10.37,2013-08-18 04:00:00,
2013-08-17 22:15:00,84.2,77.7,29.95,East,99,14.0,20.0,81,0.00,CLR,,0.00,WeatherDisplay:10.37,2013-08-18 04:15:00,
2013-08-17 22:30:00,84.3,78.2,29.95,East,88,13.0,19.0,82,0.00,CLR,,0.00,WeatherDisplay:10.37,2013-08-18 04:30:00,
2013-08-17 22:45:00,84.1,77.3,29.95,East,88,13.0,20.0,80,0.00,CLR,,0.00,WeatherDisplay:10.37,2013-08-18 04:45:00,
2013-08-17 23:00:00,84.2,78.1,29.94,East,89,8.0,19.0,82,0.00,CLR,,0.00,WeatherDisplay:10.37,2013-08-18 05:00:00,
2013-08-17 23:15:00,84.1,77.6,29.94,East,88,8.0,19.0,81,0.00,CLR,,0.00,WeatherDisplay:10.37,2013-08-18 05:15:00,
2013-08-17 23:30:00,84.0,77.9,29.94,East,94,7.0,19.0,82,0.00,CLR,,0.00,WeatherDisplay:10.37,2013-08-18 05:30:00,
2013-08-17 23:45:00,83.9,77.8,29.94,East,93,9.0,16.0,82,0.00,CLR,,0.00,WeatherDisplay:10.37,2013-08-18 05:45:00,